Location: Appleton
(44.2618°N, 88.4157°W)
Time: 19:11:08
(UTC+00:00)

Tiros 1 despin weight - Pass Details

Date: 28 February 2021
Orbit: 593 x 641 km, 48.2° (Epoch: 12 April)

Event Time Altitude Azimuth Distance (km) Brightness Sun altitude
Exits shadow 11:01:30 27° 298° (WNW) 1,241 ? -17.0°
Maximum altitude 11:04:03 73° 17° (NNE) 673 ? -16.5°
Drops below altitude 10° 11:08:44 10° 103° (ESE) 2,030 ? -15.7°
Sets 11:11:04 0° 105° (ESE) 2,936 ? -15.3°
